PRSC-EO1

operational
NORAD ID: 62725 Int'l Des: NNA 2025-012 Owner: SUPA Country: PK
LEOCIRCULARRETROGRADESSO

关于 PRSC-EO1

正在加载描述...

实时位置

正在加载3D地球...

即将过境

高度历史

Altitude vs Time

uPlot chart will show altitude changes over time

两行轨道根数

1 62725U 25012A 25340.93480437 .00014685 00000-0 72978-3 0 9994
2 62725 97.4462 51.9197 0006389 213.8764 146.2063 15.17737322 49031
Epoch: Dec 6, 2025 • Age: 17 hours

当前状态

高度 535.1 km
速度 7.60 km/s
星下点 -68.90°S, 94.07°W
发射日期 Jan 17, 2025
运行时间 0.8 years
类型 other

技术详情

分类 Payload
质量 500.00 kg
干质量 500.00 kg
总质量 500.00 kg
长度 2.00 m
直径 1.50 m
跨度 8.00 m
形状 Box + 2 Pan
制造商 SUPA
平台类型 PRSC-EO
阶段状态 In Orbit
所有者/国家 SUPA/PK

大型星座

Loading constellations...